Regional Weather Roundup
Issued by NWS Albany, NY

Home | Current Version | Previous Version | Graphics & Text | Print | Product List | Glossary Off
Versions: 1 2 3 4 5 6 7 8 9 10 11 12 13 14 15 16 17 18 19 20 21 22 23 24 25 26 27 28 29 30 31 32 33 34 35 36 37 38 39 40 41 42 43 44 45 46 47 48 49 50

056
ASUS41 KALY 011210
RWRALY

NEW YORK STATE HOURLY WEATHER ROUNDUP
NATIONAL WEATHER SERVICE ALBANY NY
800 AM EDT SAT OCT 01 2016

NOTE: "FAIR" INDICATES FEW OR NO CLOUDS BELOW 12,000 FEET WITH NO
SIGNIFICANT WEATHER AND/OR NO OBSTRUCTIONS TO VISIBILITY.

NYZ032-033-038>043-046>054-057>066-NYZ062>081-082-084-011300-
EAST


CITY           SKY/WX    TMP DP  RH WIND       PRES   REMARKS
ALBANY         CLOUDY    50  47  89 N6        30.31S
GLENS FALLS    CLOUDY    52  48  86 N6        30.31F
POUGHKEEPSIE   CLOUDY    50  49  96 N8        30.27R FOG
NEWBURGH       DRIZZLE   52  52 100 NE7       30.27S FOG
MONTGOMERY     CLOUDY    53  51  93 NE9       30.26S FOG
WHITE PLAINS   DRIZZLE   56  53  90 NE7       30.23R FOG
ISLIP          DRIZZLE   58  57  97 N9        30.21R FOG
NEW YORK CITY  DRIZZLE   58  56  93 NE13      30.22R FOG
CENTRAL PARK   CLOUDY    57  54  89 NE9       30.25R
$$

NYZ005>009-017-018-044>046-055-056-011300-
CENTRAL


CITY           SKY/WX    TMP DP  RH WIND       PRES   REMARKS
FULTON         CLOUDY    53  48  83 VRB6      30.23S
SYRACUSE       CLOUDY    52  46  80 E9        30.24R
ROME           CLOUDY    51  49  92 SE8       30.29R
ELMIRA         CLOUDY    55  50  83 VRB5      30.21R
BINGHAMTON     FOG       49  49 100 E8        30.22S VSB 1/4
MONTICELLO     CLOUDY    50  48  93 E12       30.27R
$$

NYZ026>034-041>043-087-011300-
NORTH


CITY           SKY/WX    TMP DP  RH WIND       PRES   REMARKS
WATERTOWN      CLOUDY    54  49  83 NE6       30.25S
FORT DRUM      NOT AVBL
OGDENSBURG       N/A     55  49  83 CALM      30.28S
MASSENA        CLOUDY    55  49  80 NE3       30.30S
SARANAC LAKE   CLOUDY    49  41  74 CALM      30.28F
PLATTSBURGH    CLOUDY    53  47  79 S5        30.32F
$$

NYZ001>004-010>016-019>021-085-011300-
WEST


CITY           SKY/WX    TMP DP  RH WIND       PRES   REMARKS
NIAGARA FALLS  LGT RAIN  56  51  84 E8        30.16S
BUFFALO        RAIN      55  53  93 NE6       30.16S FOG
DUNKIRK        CLOUDY    57  56  96 NE3       30.14S
JAMESTOWN      PTCLDY    54  52  94 SE7       30.14F
WELLSVILLE     CLOUDY    52  51  97 SE6       30.20R
ROCHESTER      CLOUDY    55  52  89 E6        30.20S
PENN YAN       CLOUDY    55  51  86 SE3       30.22R
$$

             KEY
       WCI = WIND CHILL INDEX
       VSB = VISIBILITY
       HX  = HEAT INDEX
$$




USA.gov is the U.S. government's official web portal to all federal, state and local government web resources and services.